User: anonymous   Login
Location: SAPM � Hemmingford
(45.0500°N, 73.5833°W)
Time: 10:54:18
(UTC-05:00)
Language:

Cosmos 1674 Rocket - Orbit

View from above orbital plane
View from above orbital plane
View from above satellite
View from above satellite

Ground track
Ground track

The orbit data is extracted from the following two-line orbital elements,

1 15945U 85069B   14353.32075719  .00000813  00000-0  95529-4 0  8469
2 15945 082.5290 265.8822 0020908 051.4550 093.2355 14.83530727585964
Epoch (UTC): 19 December 2014 07:41:53
Eccentricity: 0.0020908
inclination: 82.5290°
perigee height: 603 km
apogee height: 633 km
right ascension of ascending node: 265.8822°
argument of perigee: 51.4550°
revolutions per day: 14.83530727
mean anomaly at epoch: 93.2355°
orbit number at epoch: 58596

The dashed part of the orbit path shows where the satellite is in the earth's shadow,  

DLR